TIANWANG 1C (TW-1C)
1 40926U 15051B   19268.85323442  .00010399  00000-0  14286-3 0  9996
2 40926  97.1269 314.9554 0007839  18.3888  99.6134 15.57458729225588
TIANWANG 1B (TW-1B)
1 40927U 15051C   19268.84551662  .00009467  00000-0  13858-3 0  9991
2 40927  97.1295 314.1151 0008311  29.3457  57.2994 15.55760547225422
TIANWANG 1A (TW-1A)
1 40928U 15051D   19268.91614676 +.00002362 +00000-0 +58706-4 0  9994
2 40928 097.1395 298.0125 0012774 074.1027 046.4794 15.41224766224457
LAPAN A2
1 40931U 15052B   19267.89441695  .00000771  00000-0  18391-4 0  9992
2 40931   5.9959  76.3438 0013006 104.0367 256.1227 14.76615036215808
LQSAT
1 40958U 15057A   19268.80345923 +.00000002 +00000-0 +79778-5 0  9999
2 40958 097.8901 335.2785 0016778 284.2510 075.6834 14.73089473213405
CHUBUSAT 2
1 41338U 16012B   19268.29992051 +.00000322 +00000-0 +18310-4 0  9996
2 41338 031.0026 238.0909 0013725 359.7649 000.2978 15.00182173197736
CHUBUSAT 3
1 41339U 16012C   19268.32447055  .00000266  00000-0  13918-4 0  9996
2 41339  31.0103 235.8989 0013673   7.4710 352.6127 15.00355226197735
OUFTI-1
1 41458U 16025C   19268.79360395  .00001127  00000-0  60894-4 0  9996
2 41458  98.1008   0.6764 0166383  24.3469 336.5502 15.06035820187480
E-STAR-2
1 41459U 16025D   19268.90046808 +.00000763 +00000-0 +42924-4 0  9999
2 41459 098.1017 000.3966 0167919 025.5376 335.3985 15.05662477187472
AAUSAT 4
1 41460U 16025E   19268.81661335  .00000583  00000-0  33197-4 0  9991
2 41460  98.0930   1.7979 0157501  17.2385 343.4116 15.07619947187607
NUSAT 1
1 41557U 16033B   19268.91013835 +.00001020 +00000-0 +40775-4 0  9991
2 41557 097.4156 355.8313 0012430 311.9043 048.1135 15.27386966185239
BEESAT 4
1 41619U 16040W   19268.84285848 +.00001096 +00000-0 +49051-4 0  9994
2 41619 097.3581 329.1779 0012306 042.0101 318.2078 15.23312808168955
PRATHAM
1 41783U 16059A   19268.70152952 +.00000027 +00000-0 +14479-4 0  9999
2 41783 098.0576 326.0461 0034846 073.5543 286.9485 14.63010086160024
ALSAT 1N
1 41789U 16059G   19268.81065828  .00000049  00000-0  18251-4 0  9998
2 41789  98.0602 328.3644 0029464  62.5798 297.8381 14.64262971160151
NAYIF 1
1 42017U 17008BX  19268.73738435 +.00001181 +00000-0 +49121-4 0  9998
2 42017 097.3946 334.7758 0006567 165.5104 194.6323 15.25728366145022
MAX VALIER SAT
1 42778U 17036P   19268.73332135 +.00000686 +00000-0 +32887-4 0  9990
2 42778 097.3447 324.1712 0011019 231.3664 128.6586 15.22142695125305
